Date String (YYYY-MM-DD hh:mm:ss) UTC,Instrument flags,Ambient pressure (hPa),Sample flow (lpm),Bypass flow (lpm),Sample temperature (°C),Ambient temperature (°C),ASC tube jacket temperature (°C),LED temperature (°C),Box temperature (°C),Sample RH (%),Span deviation,Mass concentration (μg/m³),Mass concentration (μg/m³),Mass concentration (μg/m³)
DateTimeUTC,F1_M11,P_M11,Q1_M11,Q2_M11,T1_M11,T2_M11,T3_M11,T4_M11,T5_M11,U1_M11,ZSPAN_M11,X2_M11,X0_M11,X1_M11
2022-03-24 05:00:00,,0826.0,5.00,0.00,22.3,21.4,00.0,31.3,24.0,08.2,0000.0,0002.01,0005.21,0001.37
2022-03-24 05:01:00,,0826.0,5.00,0.00,22.2,21.4,00.0,31.3,24.0,08.2,0000.0,0001.91,0003.89,0001.31
2022-03-24 05:02:00,,0826.1,5.00,0.00,22.2,21.4,00.0,31.3,24.0,08.3,0000.0,0001.84,0003.76,0001.26
2022-03-24 05:03:00,,0826.0,4.98,0.00,22.2,21.3,00.0,31.3,23.9,08.3,0000.0,0001.78,0003.45,0001.22
2022-03-24 05:04:00,,0826.0,5.00,0.00,22.2,21.4,00.0,31.3,24.0,08.4,0000.0,0001.74,0003.43,0001.18
2022-03-24 05:05:00,,0826.1,5.01,0.00,22.2,21.4,00.0,31.2,24.0,08.5,0000.0,0001.74,0003.41,0001.18
2022-03-24 05:06:00,,0826.1,5.00,0.00,22.2,21.4,00.0,31.2,23.9,08.5,0000.0,0001.80,0003.69,0001.16
2022-03-24 05:07:00,,0826.2,5.00,0.00,22.2,21.4,00.0,31.2,23.9,08.5,0000.0,0001.76,0003.74,0001.10
2022-03-24 05:08:00,,0826.1,5.01,0.00,22.2,21.4,00.0,31.2,24.0,08.6,0000.0,0001.75,0004.63,0001.06
2022-03-24 05:09:00,,0826.1,5.00,0.00,22.2,21.4,00.0,31.2,24.0,08.6,0000.0,0001.77,0004.80,0001.05
2022-03-24 05:10:00,,0826.1,4.99,0.00,22.2,21.4,00.0,31.2,23.9,08.6,0000.0,0001.76,0004.84,0001.03
2022-03-24 05:11:00,,0826.1,4.98,0.00,22.2,21.4,00.0,31.2,23.9,08.6,0000.0,0001.75,0004.85,0001.04
2022-03-24 05:12:00,,0826.1,5.01,0.00,22.2,21.4,00.0,31.2,23.9,08.6,0000.0,0001.76,0004.88,0001.04
2022-03-24 05:13:00,,0826.0,5.00,0.00,22.2,21.4,00.0,31.2,23.9,08.6,0000.0,0001.79,0004.98,0001.05
2022-03-24 05:14:00,,0826.0,5.00,0.00,22.2,21.4,00.0,31.2,23.9,08.6,0000.0,0001.78,0004.67,0001.06
2022-03-24 05:15:00,,0826.1,5.00,0.00,22.2,21.3,00.0,31.2,23.9,08.6,0000.0,0001.85,0004.77,0001.09
2022-03-24 05:16:00,,0826.0,5.00,0.00,22.2,21.3,00.0,31.2,23.9,08.5,0000.0,0001.90,0004.80,0001.10
2022-03-24 05:17:00,,0826.1,5.00,0.00,22.2,21.3,00.0,31.2,23.9,08.5,0000.0,0001.88,0004.65,0001.09
2022-03-24 05:18:00,,0826.0,5.00,0.00,22.2,21.3,00.0,31.2,23.9,08.5,0000.0,0001.93,0004.72,0001.11
2022-03-24 05:19:00,,0826.1,5.00,0.00,22.2,21.3,00.0,31.2,23.9,08.5,0000.0,0001.95,0004.32,0001.12
2022-03-24 05:20:00,,0826.1,4.98,0.00,22.2,21.3,00.0,31.2,23.9,08.5,0000.0,0001.94,0004.32,0001.14
2022-03-24 05:21:00,,0826.1,5.00,0.00,22.2,21.3,00.0,31.2,23.9,08.5,0000.0,0001.95,0004.29,0001.15
2022-03-24 05:22:00,,0826.2,5.00,0.00,22.2,21.3,00.0,31.2,23.9,08.4,0000.0,0002.04,0004.41,0001.17
2022-03-24 05:23:00,,0826.2,5.00,0.00,22.2,21.3,00.0,31.2,23.9,08.4,0000.0,0002.05,0004.44,0001.19
2022-03-24 05:24:00,,0826.1,5.00,0.00,22.2,21.3,00.0,31.2,23.9,08.4,0000.0,0002.05,0004.30,0001.19
2022-03-24 05:25:00,,0826.0,5.00,0.00,22.2,21.3,00.0,31.2,23.9,08.4,0000.0,0002.11,0004.32,0001.19
2022-03-24 05:26:00,,0826.0,5.01,0.00,22.2,21.3,00.0,31.2,23.9,08.3,0000.0,0002.09,0005.19,0001.18
2022-03-24 05:27:00,,0826.0,4.99,0.00,22.2,21.3,00.0,31.2,23.9,08.4,0000.0,0002.03,0005.32,0001.16
2022-03-24 05:28:00,,0826.0,5.00,0.00,22.2,21.4,00.0,31.2,23.9,08.4,0000.0,0002.01,0005.34,0001.16
2022-03-24 05:29:00,,0826.0,5.01,0.00,22.2,21.4,00.0,31.2,23.9,08.3,0000.0,0001.97,0005.34,0001.15
2022-03-24 05:30:00,,0826.0,5.00,0.00,22.2,21.4,00.0,31.2,23.9,08.3,0000.0,0001.99,0004.93,0001.15
2022-03-24 05:31:00,,0826.0,5.00,0.00,22.2,21.4,00.0,31.2,23.9,08.3,0000.0,0002.03,0004.96,0001.16
2022-03-24 05:32:00,,0826.0,5.00,0.00,22.2,21.4,00.0,31.2,23.9,08.2,0000.0,0002.01,0004.97,0001.15
2022-03-24 05:33:00,,0826.0,5.00,0.00,22.2,21.4,00.0,31.2,23.9,08.2,0000.0,0001.95,0005.08,0001.14
2022-03-24 05:34:00,,0826.0,5.00,0.00,22.2,21.3,00.0,31.2,23.9,08.2,0000.0,0001.99,0005.22,0001.14
2022-03-24 05:35:00,,0826.0,5.00,0.00,22.1,21.3,00.0,31.2,23.9,08.3,0000.0,0002.05,0005.34,0001.14
2022-03-24 05:36:00,,0826.0,4.99,0.00,22.1,21.3,00.0,31.2,23.9,08.3,0000.0,0002.05,0005.29,0001.14
2022-03-24 05:37:00,,0826.0,4.99,0.00,22.1,21.3,00.0,31.2,23.9,08.3,0000.0,0002.01,0004.34,0001.14
2022-03-24 05:38:00,,0826.0,5.00,0.00,22.1,21.2,00.0,31.2,23.8,08.3,0000.0,0002.02,0004.06,0001.15
2022-03-24 05:39:00,,0826.0,5.00,0.00,22.1,21.2,00.0,31.1,23.8,08.3,0000.0,0001.99,0003.96,0001.16
2022-03-24 05:40:00,,0826.0,5.00,0.00,22.1,21.2,00.0,31.1,23.8,08.3,0000.0,0001.99,0003.91,0001.15
2022-03-24 05:41:00,,0826.0,5.00,0.00,22.1,21.2,00.0,31.1,23.8,08.3,0000.0,0001.95,0003.90,0001.15
2022-03-24 05:42:00,,0826.0,5.00,0.00,22.1,21.2,00.0,31.1,23.8,08.3,0000.0,0001.91,0003.79,0001.13
2022-03-24 05:43:00,,0825.9,4.99,0.00,22.1,21.1,00.0,31.1,23.7,08.4,0000.0,0001.89,0003.75,0001.13
2022-03-24 05:44:00,,0825.9,5.00,0.00,22.0,21.1,00.0,31.1,23.7,08.4,0000.0,0001.87,0003.49,0001.12
2022-03-24 05:45:00,,0825.9,5.00,0.00,22.0,21.1,00.0,31.1,23.7,08.4,0000.0,0001.83,0003.35,0001.11
2022-03-24 05:46:00,,0825.9,5.00,0.00,22.0,21.1,00.0,31.1,23.7,08.3,0000.0,0001.81,0003.32,0001.10
2022-03-24 05:47:00,,0825.9,4.99,0.00,22.0,21.1,00.0,31.1,23.7,08.3,0000.0,0001.76,0003.23,0001.09
2022-03-24 05:48:00,,0825.8,5.01,0.00,22.0,21.1,00.0,31.1,23.7,08.3,0000.0,0001.72,0003.13,0001.07
2022-03-24 05:49:00,,0825.8,5.00,0.00,22.0,21.0,00.0,31.1,23.7,08.4,0000.0,0001.69,0003.06,0001.07
2022-03-24 05:50:00,,0825.9,5.00,0.00,22.0,21.0,00.0,31.0,23.7,08.4,0000.0,0001.67,0002.99,0001.06
2022-03-24 05:51:00,,0825.9,4.99,0.00,22.0,21.0,00.0,31.0,23.7,08.3,0000.0,0001.62,0002.84,0001.06
2022-03-24 05:52:00,,0825.9,5.00,0.00,22.0,21.0,00.0,31.0,23.7,08.3,0000.0,0001.59,0002.79,0001.05
2022-03-24 05:53:00,,0825.9,4.99,0.00,21.9,21.0,00.0,31.0,23.7,08.3,0000.0,0001.59,0004.46,0001.04
2022-03-24 05:54:00,,0825.9,5.00,0.00,21.9,21.1,00.0,31.0,23.7,08.3,0000.0,0001.60,0004.47,0001.04
2022-03-24 05:55:00,,0826.0,5.00,0.00,22.0,21.1,00.0,31.0,23.7,08.3,0000.0,0001.60,0004.48,0001.04
2022-03-24 05:56:00,,0825.9,5.00,0.00,22.0,21.1,00.0,31.0,23.7,08.3,0000.0,0001.62,0004.55,0001.05
2022-03-24 05:57:00,,0825.9,5.00,0.00,22.0,21.1,00.0,31.0,23.7,08.3,0000.0,0001.60,0004.47,0001.07
2022-03-24 05:58:00,,0825.9,5.00,0.00,21.9,21.1,00.0,31.0,23.7,08.3,0000.0,0001.67,0004.67,0001.08
2022-03-24 05:59:00,,0825.9,5.01,0.00,21.9,21.1,00.0,31.0,23.6,08.3,0000.0,0001.79,0004.97,0001.10
